Total_Precipitation_Accumulation
0.02 0.02 0.01 0.02 0.02 0.02 0.02 0.04 0.06 0.05 0.02 0.00 0.00 0.00 0.00 0.00 0.02 0.04 0.06 0.05 0.05 0.04 0.02 0.00 0.00 0.00 0.00 0.00 0.00 0.00 0.00 0.00 0.00 0.00 0.00 0.00 0.01 0.04
0.01 0.01 0.02 0.02 0.01 0.01 0.02 0.03 0.06 0.06 0.03 0.01 0.00 0.00 0.00 0.00 0.02 0.04 0.07 0.06 0.05 0.04 0.02 0.00 0.00 0.00 0.00 0.00 0.00 0.00 0.00 0.00 0.00 0.00 0.00 0.00 0.02 0.07
0.01 0.01 0.01 0.01 0.02 0.02 0.03 0.03 0.03 0.04 0.05 0.03 0.01 0.01 0.01 0.01 0.03 0.05 0.06 0.04 0.03 0.03 0.02 0.02 0.01 0.00 0.00 0.00 0.00 0.00 0.00 0.00 0.00 0.00 0.01 0.02 0.05 0.08
0.00 0.00 0.01 0.01 0.02 0.02 0.02 0.02 0.03 0.04 0.07 0.06 0.03 0.02 0.01 0.02 0.04 0.05 0.05 0.04 0.03 0.03 0.04 0.03 0.01 0.01 0.00 0.00 0.00 0.00 0.00 0.00 0.00 0.01 0.02 0.06 0.09 0.10
0.00 0.00 0.00 0.01 0.02 0.02 0.03 0.04 0.04 0.05 0.05 0.05 0.02 0.01 0.01 0.02 0.05 0.08 0.08 0.05 0.02 0.02 0.03 0.01 0.00 0.00 0.00 0.01 0.01 0.01 0.01 0.01 0.01 0.03 0.09 0.13 0.15 0.16
0.00 0.01 0.01 0.02 0.04 0.05 0.04 0.03 0.03 0.02 0.02 0.02 0.02 0.01 0.01 0.02 0.05 0.11 0.09 0.04 0.02 0.01 0.00 0.00 0.00 0.00 0.03 0.08 0.04 0.02 0.02 0.02 0.04 0.11 0.17 0.20 0.22 0.23
0.00 0.01 0.02 0.03 0.06 0.05 0.03 0.03 0.02 0.01 0.01 0.02 0.03 0.02 0.02 0.04 0.06 0.07 0.05 0.03 0.01 0.00 0.00 0.00 0.01 0.10 0.27 0.37 0.23 0.09 0.06 0.06 0.09 0.17 0.24 0.26 0.25 0.23
0.00 0.01 0.01 0.01 0.02 0.02 0.01 0.01 0.01 0.02 0.04 0.05 0.05 0.03 0.01 0.04 0.06 0.06 0.04 0.02 0.01 0.00 0.00 0.01 0.10 0.35 0.66 0.86 0.56 0.23 0.18 0.17 0.14 0.20 0.24 0.25 0.23 0.18
0.00 0.00 0.01 0.01 0.02 0.00 0.00 0.00 0.02 0.06 0.10 0.09 0.06 0.02 0.02 0.04 0.06 0.05 0.03 0.01 0.01 0.01 0.00 0.03 0.16 0.37 0.52 0.68 0.62 0.42 0.37 0.33 0.27 0.29 0.29 0.26 0.20 0.14
0.00 0.01 0.02 0.02 0.01 0.00 0.00 0.01 0.04 0.09 0.12 0.08 0.05 0.02 0.03 0.05 0.05 0.04 0.02 0.01 0.01 0.01 0.01 0.05 0.19 0.32 0.35 0.46 0.63 0.64 0.66 0.58 0.48 0.44 0.40 0.32 0.21 0.13
0.00 0.00 0.01 0.01 0.01 0.01 0.02 0.02 0.05 0.09 0.09 0.08 0.07 0.08 0.09 0.07 0.04 0.02 0.01 0.01 0.02 0.02 0.02 0.07 0.20 0.32 0.34 0.40 0.51 0.63 0.72 0.70 0.60 0.49 0.39 0.28 0.17 0.11
0.00 0.00 0.00 0.01 0.01 0.02 0.03 0.03 0.06 0.10 0.14 0.15 0.12 0.13 0.13 0.10 0.07 0.04 0.03 0.02 0.03 0.03 0.02 0.05 0.15 0.24 0.32 0.43 0.46 0.50 0.53 0.54 0.51 0.44 0.34 0.22 0.11 0.04
0.00 0.00 0.00 0.02 0.04 0.04 0.04 0.06 0.10 0.16 0.21 0.23 0.17 0.12 0.10 0.07 0.05 0.05 0.04 0.03 0.02 0.03 0.01 0.03 0.09 0.16 0.20 0.30 0.39 0.39 0.34 0.30 0.28 0.28 0.24 0.15 0.07 0.02
0.00 0.01 0.01 0.05 0.06 0.05 0.07 0.10 0.11 0.16 0.20 0.19 0.14 0.09 0.07 0.05 0.05 0.04 0.03 0.02 0.01 0.01 0.01 0.02 0.06 0.12 0.15 0.17 0.24 0.24 0.18 0.14 0.11 0.09 0.07 0.05 0.04 0.02
0.01 0.03 0.05 0.06 0.06 0.07 0.11 0.14 0.14 0.15 0.16 0.15 0.12 0.10 0.07 0.04 0.04 0.03 0.02 0.01 0.01 0.00 0.00 0.01 0.04 0.07 0.10 0.12 0.12 0.11 0.10 0.07 0.05 0.03 0.02 0.01 0.01 0.00
0.02 0.04 0.07 0.08 0.07 0.09 0.11 0.15 0.14 0.16 0.17 0.13 0.10 0.09 0.07 0.05 0.03 0.02 0.02 0.01 0.01 0.01 0.01 0.01 0.02 0.02 0.04 0.06 0.06 0.06 0.05 0.06 0.05 0.03 0.02 0.01 0.00 0.00
0.03 0.04 0.05 0.05 0.05 0.07 0.08 0.12 0.12 0.11 0.13 0.14 0.12 0.08 0.06 0.04 0.04 0.04 0.03 0.03 0.02 0.01 0.01 0.01 0.01 0.01 0.01 0.02 0.02 0.02 0.02 0.02 0.01 0.01 0.00 0.00 0.00 0.00
0.06 0.06 0.07 0.08 0.08 0.09 0.09 0.10 0.11 0.10 0.12 0.14 0.13 0.10 0.07 0.05 0.05 0.05 0.05 0.04 0.02 0.02 0.02 0.01 0.01 0.01 0.01 0.00 0.00 0.00 0.00 0.00 0.00 0.00 0.00 0.00 0.00 0.00
0.05 0.07 0.10 0.13 0.14 0.13 0.11 0.10 0.13 0.15 0.19 0.19 0.14 0.10 0.08 0.07 0.06 0.05 0.04 0.03 0.03 0.02 0.02 0.01 0.00 0.00 0.00 0.00 0.00 0.00 0.00 0.00 0.00 0.00 0.00 0.00 0.00 0.00
0.06 0.08 0.11 0.13 0.15 0.16 0.14 0.12 0.15 0.20 0.22 0.19 0.13 0.11 0.08 0.05 0.03 0.03 0.03 0.02 0.01 0.01 0.01 0.00 0.00 0.00 0.00 0.00 0.00 0.00 0.00 0.00 0.00 0.00 0.00 0.00 0.00 0.00
0.07 0.08 0.11 0.10 0.08 0.09 0.10 0.11 0.13 0.17 0.17 0.14 0.11 0.08 0.05 0.02 0.02 0.02 0.02 0.01 0.01 0.00 0.00 0.00 0.00 0.00 0.00 0.00 0.00 0.00 0.00 0.00 0.00 0.00 0.00 0.00 0.00 0.00
0.05 0.08 0.11 0.09 0.06 0.04 0.05 0.06 0.08 0.09 0.08 0.07 0.05 0.03 0.02 0.02 0.02 0.01 0.01 0.00 0.00 0.00 0.00 0.00 0.00 0.00 0.00 0.00 0.00 0.00 0.00 0.00 0.00 0.00 0.00 0.00 0.00 0.00
0.02 0.03 0.07 0.08 0.08 0.06 0.03 0.02 0.03 0.02 0.02 0.02 0.02 0.01 0.02 0.02 0.01 0.01 0.00 0.00 0.00 0.00 0.00 0.00 0.00 0.00 0.00 0.00 0.00 0.00 0.00 0.00 0.00 0.00 0.00 0.00 0.00 0.00